Погода в Ринконе

Пуэрто-Рико     18°20′24″N   67°14′01″W
темп.,
°C
ветер,
м/с
пор.,
м/с
влажн.,
%
обл.,
%
осадки,
мм/ч
давл.,
гПа
погр.,
м
13 апреля, вт
вт1323:00+24вюв3474100 0.0 1014324
02:00+24юв458074 0.0 1012321
05:00+23вюв3482100 0.0 1012218
08:00+24св2275100 0.0 1014180
11:00+25зсз447799 0.0 1015343
14:00+25з447999 0.0 1012337
17:00+26зсз3278100 0.0 1012340
20:00+26св447756 0.0 1013297
14 апреля, ср
ср1423:00+24св447875 0.0 1015188
02:00+24св3478100 0.0 1013205
05:00+24св4579100 0.0 1013315
08:00+25ссв457685 0.0 1015429
11:00+26ссз777275 0.0 1015549
14:00+26с997538 0.0 1014651
17:00+26с99752 0.0 1013796
20:00+25св8979100 0.0 1014675
15 апреля, чт
чт1523:00+24св677711 0.0 1015618
02:00+24св677578 0.0 1013527
05:00+23св77758 0.0 1013481
08:00+24св99690 0.0 1015762
11:00+27ссв76611 0.0 1015602
14:00+26с66657 0.0 1013490
17:00+27с45653 0.0 1012343
20:00+25юв457218 0.0 1014455
16 апреля, пт
пт1623:00+24всв33710 0.0 1015186
02:00+23всв21720 0.0 1013154
05:00+23всв22725 0.0 1014154
08:00+24ссв22690 0.0 1015182
11:00+25сз447514 0.1 1016313
14:00+25сз337746 0.3 1014408
17:00+27ссз447813 0.1 1013502
20:00+26св348210 0.4 1014207
17 апреля, сб
сб1723:00+26в23820 0.1 1015170
02:00+25юв46834 0.1 1014342
05:00+25юв58851 0.0 1015394
08:00+26вюв46785 0.0 1016463
11:00+28ююз4566100 0.0 1016356
14:00+29ю8106316 0.0 1014445
17:00+27ссв467655 0.0 1014442
20:00+27всв127697 0.1 1016330